Regional Weather Roundup
Issued by NWS

Home | Current Version | Previous Version | Graphics & Text | Print | Product List | Glossary On
Versions: 1 2 3 4 5 6 7 8 9 10 11 12 13 14 15 16 17 18 19 20 21 22 23 24 25 26 27
000
ASUS43 KDMX 230907
RWRIA

WEATHER ROUNDUP FOR IOWA
NATIONAL WEATHER SERVICE DES MOINES IA
400 AM CDT WED APR 23 2014

NOTE: "FAIR" INDICATES FEW OR NO CLOUDS BELOW 12,000 FEET WITH NO
SIGNIFICANT WEATHER AND/OR OBSTRUCTIONS TO VISIBILITY.

* - THESE STATIONS ARE NOT NWS STATIONS...THUS NOT UNDER NWS
QUALITY CONTROL.  THEY ALSO DO NOT REPORT WEATHER SUCH
AS PRECIPITATION OR FOG.

IAZ001>003-012>014-020>022-031>034-043>046-231000-
   NORTHWEST IOWA

CITY           SKY/WX    TMP DP  RH WIND       PRES   REMARKS
CARROLL *      CLOUDY    50  34  53 SE13      30.00S
CHEROKEE *     CLOUDY    52  36  54 SE14G20   29.96F
DENISON *      CLOUDY    52  34  50 SE15G22   29.94F
LE MARS *      MOCLDY    52  36  54 SE15      29.92F
ORANGE CITY *  PTCLDY    54  34  47 SE14G20   29.93S
SHELDON *      MOCLDY    52  36  54 SE16G24   29.93F
SIOUX CITY     PTCLDY    53  34  48 SE15      29.90F
SPENCER        CLOUDY    51  34  52 SE18G25   29.98F
STORM LAKE *   CLOUDY    50  36  57 SE16G22   29.98F
$$

IAZ055>058-069>071-079>083-090>094-231000-
   SOUTHWEST IOWA

CITY           SKY/WX    TMP DP  RH WIND       PRES   REMARKS
ATLANTIC *     CLOUDY    54  34  47 E13G18    29.97F
AUDUBON *      MOCLDY    52  30  43 SE13      30.00F
CLARINDA *     MOCLDY    55  36  47 E10       29.99F
COUNCIL BLFS * CLEAR     52  37  58 SE10      29.93F
CRESTON *      CLOUDY    52  34  50 E12       30.01S
HARLAN  *      MOCLDY    52  36  54 SE15G22   29.99F
LAMONI         MOCLDY    51  33  50 E7        30.01S
RED OAK *      MOCLDY    54  36  50 SE14      29.97F
SHENANDOAH *   CLOUDY    55  37  50 SE10      29.97S
$$

IAZ047>049-059>061-072>074-084-231000-
   CENTRAL IOWA

CITY           SKY/WX    TMP DP  RH WIND       PRES   REMARKS
AMES           CLOUDY    50  32  50 SE6       30.04S
ANKENY *       CLOUDY    50  34  53 E8        30.04S
CHARITON *     CLOUDY    46  36  66 E7        30.04R
DES MOINES     MOCLDY    52  32  46 E9        30.03S
GRINNELL*      PTCLDY    43  32  65 E7        30.06R
KNOXVILLE *    PTCLDY    48  34  57 E6        30.03R
MARSHALLTOWN   MOCLDY    45  32  60 E9        30.06R
NEWTON *       CLOUDY    48  32  53 E10       30.05R
PELLA *        PTCLDY    48  34  57 E6        30.05S
PERRY *        CLOUDY    52  32  46 E10       30.02F
$$

IAZ004>006-015-016-023>025-035-036-231000-
   NORTH CENTRAL IOWA

CITY           SKY/WX    TMP DP  RH WIND       PRES   REMARKS
ALGONA *       CLOUDY    48  32  53 SE16G22   30.03S
CLARION *      MOCLDY    48  34  57 E13       30.05R
ESTHERVILLE    CLOUDY    47  36  65 SE14      30.01S
FORT DODGE *   CLOUDY    50  32  50 SE13      30.04R
MASON CITY     CLOUDY    45  32  60 SE9       30.08R
FOREST CITY *  CLOUDY    45  32  61 SE8       30.06R
IOWA FALLS *   CLOUDY    48  30  49 E8        30.07R
$$

IAZ007>011-017>019-026>030-037>042-050>054-066-231000-
   NORTHEAST IOWA

CITY           SKY/WX    TMP DP  RH WIND       PRES   REMARKS
CEDAR RAPIDS   PTCLDY    43  31  62 E12       30.07R
CHARLES CITY * CLOUDY    45  30  57 E10       30.09R
CLINTON *      PTCLDY    36  28  75 E6        30.14S WCI  31
DECORAH *      CLEAR     41  28  60 E9        30.09S
DUBUQUE        CLEAR     38  27  64 CALM      30.10R
MONTICELLO *   CLEAR     37  30  75 SE6       30.11R WCI  33
OELWEIN *      CLOUDY   N/A N/A N/A E10       30.10R
WATERLOO       CLOUDY    45  30  55 E10       30.07R
$$

IAZ064-065-067-068-078-231000-
   EAST CENTRAL IOWA

CITY           SKY/WX    TMP DP  RH WIND       PRES   REMARKS
DAVENPORT      PTCLDY    37  29  72 E9        30.10S WCI  30
IOWA CITY      PTCLDY    43  31  62 E8        30.09S
MT. PLEASANT * PTCLDY    43  30  61 E10       30.07S
MUSCATINE *    CLEAR     43  32  65 SE7       30.10S
QUAD CITIES    PTCLDY    35  30  82 E5        30.11R WCI  31
$$

IAZ062-063-075>077-085>089-095>099-231000-
   SOUTHEAST IOWA

CITY           SKY/WX    TMP DP  RH WIND       PRES   REMARKS
BURLINGTON     CLEAR     42  33  70 E9        30.08R
FAIRFIELD *    PTCLDY    43  32  65 E9        30.06R
FORT MADISON * CLEAR     45  32  61 E12       30.08R
KEOKUK *       CLOUDY    48  32  53 E13G21    30.06R
OSKALOOSA *      N/A     43  36  75 E8        30.05S
CENTERVILLE *  CLEAR     45  32  61 E6        30.05S
OTTUMWA        PTCLDY    45  33  63 E8        30.04S
WASHINGTON *   PTCLDY    39  32  75 E10       30.08R WCI  32
$$

ABBREVIATIONS USED IN REMARKS
   TC - TEMPERATURES IN CELSIUS
  WCI - WIND CHILL INDEX
   HX - HEAT INDEX
  VSB - VISIBILITY
$$




USA.gov is the U.S. government's official web portal to all federal, state and local government web resources and services.